{"data":{"norad_id":68731,"epoch":"2026-09-19T22:13:47.581824Z","epoch_age_seconds":90916,"freshness":"FRESH","line1":"1 68731U 26082D   26262.92624516  .00019604  00000+0  60769-3 0  9996","line2":"2 68731  97.2847 125.0240 0002466  84.4390 275.7134 15.33459449 24219","mean_motion":15.33459449,"eccentricity":0.0002466,"inclination_deg":97.2847,"raan_deg":125.024,"arg_perigee_deg":84.439,"mean_anomaly_deg":275.7134,"bstar":0.00060769,"rev_number":2421,"period_min":93.905319826948,"perigee_km":463.81254382767,"apogee_km":467.18782568719,"semimajor_km":6843.6371847574,"source":"CELESTRAK","updated_at":"2026-09-20T09:00:43.990250Z"}}